Weather History for KFLO - December, 2012

Change the Weather History Date:

Monday, December 10, 2012

  Actual Average Record
Temperature  
Mean Temperature 69 °F 48 °F  
Max Temperature 76 °F 59 °F 80 °F (2007)
Min Temperature 61 °F 37 °F 22 °F (1962)
Degree Days  
Heating Degree Days 0 17  
Month to date heating degree days 38 158  
Since 1 July heating degree days 515 580  
Cooling Degree Days 4 0  
Month to date cooling degree days 6 0  
Year to date cooling degree days 2316 2059  
Growing Degree Days 18 (Base 50)    
Moisture  
Dew Point 60 °F    
Average Humidity 73    
Maximum Humidity 93    
Minimum Humidity 53    
Precipitation  
Precipitation 0.00 in 0.09 in 1.36 in (1969)
Month to date precipitation 0.28 0.90  
Year to date precipitation 37.80 40.80  
Sea Level Pressure  
Sea Level Pressure 29.87 in    
Wind  
Wind Speed 6 mph (SSW)    
Max Wind Speed 18 mph    
Max Gust Speed 24 mph    
Visibility 5 miles    
Events Fog    
T = Trace of Precipitation, MM = Missing Value Source: NWS Daily Summary

Daily Weather History Graph

Daily Weather History Graph

Search for Another Location

Airport or City:

Trip Planner

Search our weather history database for the weather conditions in past years. The results will help you decide how hot, cold, wet, or windy it might be!

Date:

Astronomy

Dec. 10, 2012 Rise Set
Actual Time 7:14 AM EST 5:09 PM EST
Civil Twilight 6:46 AM EST 5:37 PM EST
Nautical Twilight 6:15 AM EST 6:08 PM EST
Astronomical Twilight 5:44 AM EST 6:39 PM EST
Moon 4:00 AM EST (12/10) 2:53 PM EST (12/10)
Length of Visible Light 10h 50m
Length of Day
9h 55m
Waning Crescent, 10% of the Moon is Illuminated
Dec 10
Waning Crescent
Dec 13
New
Dec 20
First Quarter
Dec 28
Full
Jan 4
Last Quarter

Hourly Weather History & Observations

Time (EST) Temp. Dew Point Humidity Pressure Visibility Wind Dir Wind Speed Gust Speed Precip Events Conditions
12:02 AM 64.4 °F 62.6 °F 94% 29.99 in 10.0 mi SE 3.5 mph - N/A   Scattered Clouds
12:25 AM 64.4 °F 60.8 °F 88% 29.98 in 1.8 mi Calm Calm - N/A   Clear
12:39 AM 64.4 °F 60.8 °F 88% 29.97 in 0.8 mi SE 4.6 mph - N/A   Clear
12:48 AM 62.6 °F 60.8 °F 94% 29.97 in 1.5 mi SSE 3.5 mph - N/A   Clear
12:53 AM 63.0 °F 61.0 °F 93% 29.96 in 0.8 mi SSE 3.5 mph - N/A   Clear
1:04 AM 62.6 °F 60.8 °F 94% 29.96 in 0.2 mi Calm Calm - N/A Fog Fog
1:53 AM 62.1 °F 60.1 °F 93% 29.94 in 0.5 mi Calm Calm - N/A Fog Fog
2:17 AM 62.6 °F 60.8 °F 94% 29.94 in 0.2 mi Calm Calm - N/A Fog Fog
2:53 AM 64.0 °F 61.0 °F 90% 29.93 in 0.2 mi Calm Calm - N/A Fog Fog
3:53 AM 64.9 °F 62.1 °F 90% 29.91 in 0.2 mi Calm Calm - N/A Fog Fog
4:04 AM 64.4 °F 62.6 °F 94% 29.91 in 0.2 mi West 3.5 mph - N/A Fog Fog
4:33 AM 64.4 °F 62.6 °F 94% 29.91 in 0.2 mi Calm Calm - N/A Fog Fog
4:53 AM 64.0 °F 62.1 °F 93% 29.89 in 0.2 mi Calm Calm - N/A Fog Fog
5:53 AM 64.0 °F 62.1 °F 93% 29.89 in 0.2 mi South 4.6 mph - N/A Fog Fog
6:05 AM 64.4 °F 62.6 °F 94% 29.89 in 0.8 mi South 4.6 mph - N/A   Mist
6:53 AM 64.0 °F 62.1 °F 93% 29.89 in 1.0 mi SW 4.6 mph - N/A   Mist
7:09 AM 64.4 °F 62.6 °F 94% 29.90 in 2.5 mi SW 4.6 mph - N/A   Overcast
7:16 AM 64.4 °F 62.6 °F 94% 29.90 in 3.0 mi SW 5.8 mph - N/A   Overcast
7:28 AM 64.4 °F 62.6 °F 94% 29.89 in 1.8 mi SSW 5.8 mph - N/A   Overcast
7:44 AM 64.4 °F 62.6 °F 94% 29.89 in 0.8 mi SW 5.8 mph - N/A   Overcast
7:53 AM 64.9 °F 62.1 °F 90% 29.89 in 0.5 mi SSW 6.9 mph - N/A Fog Fog
8:01 AM 64.4 °F 62.6 °F 94% 29.89 in 0.2 mi SSW 6.9 mph - N/A Fog Fog
8:30 AM 64.4 °F 62.6 °F 94% 29.89 in 0.5 mi SW 6.9 mph - N/A Fog Fog
8:42 AM 64.4 °F 62.6 °F 94% 29.89 in 1.8 mi SW 6.9 mph - N/A   Overcast
8:50 AM 66.2 °F 62.6 °F 88% 29.89 in 2.5 mi SW 5.8 mph - N/A   Overcast
8:53 AM 66.0 °F 63.0 °F 90% 29.88 in 3.0 mi SW 8.1 mph - N/A   Overcast
9:20 AM 66.2 °F 62.6 °F 88% 29.89 in 5.0 mi SW 6.9 mph - N/A   Overcast
9:53 AM 68.0 °F 62.1 °F 81% 29.88 in 8.0 mi SSW 10.4 mph - N/A   Mostly Cloudy
10:01 AM 68.0 °F 60.8 °F 78% 29.89 in 9.0 mi SW 13.8 mph - N/A   Scattered Clouds
10:53 AM 71.1 °F 59.0 °F 66% 29.87 in 10.0 mi SW 10.4 mph - N/A   Clear
11:53 AM 73.0 °F 55.9 °F 55% 29.84 in 10.0 mi WSW 13.8 mph 18.4 mph N/A   Scattered Clouds
12:53 PM 73.9 °F 55.9 °F 53% 29.82 in 10.0 mi SW 13.8 mph 20.7 mph N/A   Mostly Cloudy
1:53 PM 75.0 °F 57.0 °F 53% 29.79 in 10.0 mi WSW 11.5 mph - N/A   Scattered Clouds
2:53 PM 73.9 °F 57.0 °F 55% 29.77 in 10.0 mi SSW 8.1 mph - N/A   Clear
3:53 PM 73.9 °F 57.0 °F 55% 29.76 in 10.0 mi SSW 15.0 mph 20.7 mph N/A   Clear
4:53 PM 72.0 °F 57.9 °F 61% 29.76 in 10.0 mi SSW 8.1 mph - N/A   Clear
5:53 PM 70.0 °F 57.9 °F 65% 29.76 in 10.0 mi South 9.2 mph - N/A   Clear
6:53 PM 68.0 °F 57.9 °F 70% 29.79 in 10.0 mi SSW 5.8 mph - N/A   Clear
7:53 PM 66.0 °F 57.9 °F 75% 29.78 in 10.0 mi South 4.6 mph - N/A   Clear
8:53 PM 66.0 °F 57.9 °F 75% 29.77 in 10.0 mi SSW 4.6 mph - N/A   Partly Cloudy
9:53 PM 63.0 °F 57.9 °F 84% 29.78 in 10.0 mi West 4.6 mph - N/A   Scattered Clouds
10:53 PM 63.0 °F 57.9 °F 84% 29.77 in 10.0 mi Calm Calm - N/A   Clear
11:53 PM 61.0 °F 57.0 °F 87% 29.76 in 10.0 mi SSW 4.6 mph - N/A   Partly Cloudy